[Date Prev][Date Next][Thread Prev][Thread Next] - [Date Index][Thread Index][Author Index]
2 Line ISS Keps 11-8
- Subject: [sarex] 2 Line ISS Keps 11-8
- From: "Dave Larsen PhD" <doc@xxxxxxxxxxx>
- Date: Mon, 8 Nov 2004 03:01:40 -0800
ISS
1 25544U 98067A 04313.16143307 .00025559 00000-0 20813-3 0 945
2 25544 51.6364 311.0924 0008246 332.1867 105.3295 15.70442511340931
----
Via the sarex mailing list at AMSAT.ORG courtesy of AMSAT-NA.
To unsubscribe, send "unsubscribe sarex" to Majordomo@amsat.org
AMSAT Home